[[{"header":{"parameterUnit":"m.s-1","parameterCategory":1,"la1":30.2991,"la2":30.254,"lo1":-89.0895,"lo2":-89.0444,"dy":0.0017,"dx":0.0017,"nx":28,"ny":28,"refTime":"2024-02-09T03:00:00:Z","depth":0,"parameterNumber":2,"parameterNumberName":"U-component_of_WINDS"},"data":[0,0,0,0,0,0,0,0,0,0,0,0,0,0,0,0,0,0,0,0,0,0,0,0,0,0,0,0,0,0,0,0,0,0,0,0,0,0,0,0,0,0,0,0,0,0,0,0,0,0,0,0,0,0,0,0,0,0,-5.3253,-5.3253,0,-5.3277,-5.3277,-5.3277,-5.3195,-5.3192,-5.319,-5.3188,-5.3211,-5.3214,-5.3217,0,0,0,0,0,0,0,0,0,0,0,0,0,-5.3137,-5.3139,-5.3253,-5.3253,-5.3254,-5.3277,-5.3277,-5.3277,-5.3195,-5.3192,-5.3189,-5.3186,-5.321,-5.3214,-5.3217,0,0,0,0,0,0,0,0,0,0,0,0,0,-5.3177,-5.314,-5.3253,-5.3215,-5.3212,-5.3277,-5.3277,-5.3277,-5.3196,-5.3192,-5.3188,-5.3185,-5.3209,-5.3213,-5.3218,-5.3319,0,0,-5.3231,-5.3233,0,0,0,0,0,0,0,0,-5.3175,-5.3181,-5.3221,-5.3218,-5.3215,-5.3229,-5.3245,-5.3291,-5.3197,-5.3202,-5.3187,-5.3183,-5.322,-5.3223,-5.3236,-5.332,-5.3321,-5.3231,-5.3234,-5.3236,-5.3237,0,0,0,0,0,0,0,-5.3172,-5.318,-5.3262,-5.3221,-5.3218,-5.3198,-5.3199,-5.3253,-5.3232,-5.3201,-5.3195,-5.3199,-5.3218,-5.3232,-5.3236,-5.3321,-5.3231,-5.3235,-5.3238,-5.324,-5.3491,-5.3495,0,0,0,0,0,0,-5.3174,-5.3178,-5.3262,-5.3263,-5.3185,-5.3203,-5.3204,-5.3228,-5.3231,-5.3228,-5.3203,-5.3195,-5.3226,-5.3231,-5.3236,-5.3355,-5.3236,-5.324,-5.3243,-5.3487,-5.3492,-5.3496,0,0,0,0,0,0,-5.3172,-5.3182,-5.3261,-5.3219,-5.3227,-5.3209,-5.3236,-5.3231,-5.3244,-5.3232,-5.3227,-5.3221,-5.3223,-5.323,-5.3299,-5.3355,-5.3242,-5.3246,-5.3482,-5.3488,-5.3494,-5.3593,0,0,0,0,0,0,-5.3169,-5.3182,-5.322,-5.322,-5.323,-5.3323,-5.3239,-5.3234,-5.3252,-5.3243,-5.3248,-5.3245,-5.3221,-5.3293,-5.3304,-5.3359,-5.325,-5.3477,-5.3485,-5.3492,-5.3585,-5.3602,-5.3617,0,0,0,0,0,-5.3165,-5.3247,-5.3222,-5.3233,-5.3277,-5.3327,-5.3332,-5.3303,-5.3257,-5.3295,-5.3287,-5.3245,-5.3348,-5.3301,-5.3312,-5.3369,-5.3473,-5.3483,-5.3491,-5.3578,-5.3599,-5.3616,0,0,0,0,0,0,-5.3252,-5.3246,-5.3219,-5.3303,-5.3316,-5.3312,-5.3359,-5.3326,-5.3352,-5.3342,-5.3305,-5.3307,-5.3383,-5.3383,-5.3331,-5.3468,-5.3402,-5.3414,-5.3464,-5.3484,-5.35,-5.3497,-5.3253,0,0,0,0,0,-5.3282,-5.3323,-5.3315,-5.339,-5.3398,-5.3378,-5.3399,-5.3376,-5.3387,-5.3392,-5.3389,-5.3402,-5.3437,-5.3461,-5.3493,-5.3586,-5.3585,-5.3631,-5.3646,-5.3659,-5.3669,-5.3719,-5.3738,-5.3526,-5.3526,-5.3526,0,0,-5.3342,-5.3344,-5.3372,-5.3408,-5.3415,-5.3458,-5.3383,-5.3432,-5.3463,-5.3399,-5.3464,-5.3463,-5.3475,-5.3557,-5.3592,-5.3559,-5.3728,-5.3671,-5.3681,-5.3684,-5.373,-5.375,-5.3768,-5.3532,-5.3531,-5.353,0,0,-5.3474,-5.348,-5.3543,-5.3552,-5.3565,-5.3551,-5.3567,-5.3569,-5.3566,-5.3631,-5.3584,-5.3621,-5.3683,-5.3693,-5.3707,-5.3846,-5.3807,-5.3857,-5.3939,-5.3988,-5.4004,-5.4019,-5.4068,-5.4086,-5.3868,-5.3868,-5.3868,0,-5.3547,-5.361,-5.3579,-5.3632,-5.3649,-5.3595,-5.3658,-5.3669,-5.3691,-5.3705,-5.3668,-5.3744,-5.3749,-5.3832,-5.3866,-5.3879,-5.3895,-5.3855,-5.4005,-5.4019,-5.4032,-5.4078,-5.4097,-5.3874,-5.3873,-5.3873,-5.3872,0,-5.3699,-5.3744,-5.3794,-5.3817,-5.384,-5.3898,-5.3877,-5.3904,-5.388,-5.3871,-5.3938,-5.3942,-5.3974,-5.3992,-5.3969,-5.4073,-5.4052,-5.4011,-5.3944,-5.4059,-5.4101,-5.4119,-5.3882,-5.388,-5.3879,-5.3877,0,0,-5.3883,-5.3891,-5.391,-5.392,-5.3931,-5.3965,-5.4022,-5.4053,-5.4077,-5.4095,-5.4141,-5.4196,-5.4158,-5.4173,-5.4151,-5.4194,-5.4303,-5.4147,-5.4147,-5.4175,-5.4418,-5.4447,-5.4468,-5.4279,-5.4282,-5.4285,-5.4416,0,-5.4012,-5.4108,-5.4083,-5.4178,-5.4219,-5.417,-5.4219,-5.4231,-5.4225,-5.4259,-5.4252,-5.4291,-5.4238,-5.4247,-5.4288,-5.4281,-5.4351,-5.4272,-5.432,-5.4322,-5.4317,-5.4491,-5.4522,-5.4645,-5.4433,-5.4436,-5.4438,0,-5.4174,-5.4199,-5.4299,-5.4304,-5.432,-5.4365,-5.4392,-5.4426,-5.4439,-5.4432,-5.4451,-5.442,-5.4476,-5.4411,-5.4487,-5.4434,-5.4453,-5.4453,-5.4457,-5.4458,-5.4385,-5.4496,-5.4684,-5.4702,-5.4464,-5.4462,-5.446,0,-5.4297,-5.4356,-5.4423,-5.4434,-5.4442,-5.4475,-5.448,-5.449,-5.4511,-5.4535,-5.4548,-5.458,-5.4596,-5.4621,-5.46,-5.4555,-5.4679,-5.4612,-5.4674,-5.4675,-5.47,-5.4698,-5.4893,-5.4716,-5.4716,-5.4715,-5.4715,0,-5.4442,-5.4504,-5.4479,-5.452,-5.4589,-5.4561,-5.463,-5.4629,-5.4639,-5.4679,-5.4639,-5.4678,-5.4649,-5.4685,-5.467,-5.4735,-5.4743,-5.4738,-5.4733,-5.474,-5.4741,-5.475,-5.4741,-5.472,-5.4719,-5.4718,-5.4717,0,-5.459,-5.4575,-5.4645,-5.4648,-5.4651,-5.4701,-5.4704,-5.4742,-5.4734,-5.4786,-5.4796,-5.4783,-5.4824,-5.4807,-5.485,-5.4839,-5.4923,-5.4907,-5.4918,-5.4913,-5.4975,-5.4969,-5.5181,-5.5207,-5.5015,-5.5017,-5.5019,0,-5.4682,-5.4729,-5.4738,-5.4762,-5.477,-5.481,-5.4832,-5.4807,-5.4831,-5.4852,-5.4888,-5.4925,-5.4954,-5.5022,-5.5016,-5.5049,-5.5033,-5.5105,-5.5037,-5.5044,-5.5032,-5.5029,-5.5033,-5.5118,-5.512,-5.5122,-5.5123,0,-5.4847,-5.4838,-5.4871,-5.4902,-5.4929,-5.4953,-5.4972,-5.4995,-5.4971,-5.5001,-5.5042,-5.5065,-5.511,-5.5147,-5.5177,-5.5182,-5.5149,-5.5145,-5.5161,-5.5168,-5.5172,-5.5169,-5.4953,-5.514,-5.5138,-5.5137,-5.5136,-5.5135,-5.4968,-5.5008,-5.5021,-5.5059,-5.5072,-5.5092,-5.5128,-5.5126,-5.516,-5.5195,-5.5179,-5.5227,-5.5241,-5.5277,-5.5287,-5.5325,-5.5296,-5.532,-5.5325,-5.5331,-5.5338,-5.5168,-5.5331,-5.533,-5.533,-5.5329,-5.5329,0,-5.513,-5.5136,-5.5172,-5.5202,-5.5233,-5.5201,-5.5221,-5.5249,-5.5292,-5.5308,-5.5338,-5.5386,-5.5423,-5.5422,-5.5456,-5.5487,-5.5472,-5.5496,-5.5493,-5.5494,-5.5362,-5.5344,-5.5507,-5.5507,-5.5507,-5.5507,-5.5507,-5.5507,-5.5217,-5.5283,-5.5276,-5.5348,-5.5354,-5.5401,-5.5416,-5.5434,-5.5447,-5.5503,-5.5534,-5.5534,-5.5543,-5.5578,-5.5611,-5.5609,-5.5623,-5.5653,-5.5646,-5.5521,-5.5504,-5.5487,-5.547,-5.5656,-5.5657,-5.5774,-5.5775,-5.5776]},{"header":{"parameterUnit":"m.s-1","parameterCategory":1,"la1":30.2991,"la2":30.254,"lo1":-89.0895,"lo2":-89.0444,"dy":0.0017,"dx":0.0017,"nx":28,"ny":28,"refTime":"2024-02-09T03:00:00:Z","depth":0,"parameterNumber":3,"parameterNumberName":"V-component_of_WINDS"},"data":[0,0,0,0,0,0,0,0,0,0,0,0,0,0,0,0,0,0,0,0,0,0,0,0,0,0,0,0,0,0,0,0,0,0,0,0,0,0,0,0,0,0,0,0,0,0,0,0,0,0,0,0,0,0,0,0,0,0,2.0274,2.0274,0,2.0294,2.0294,2.0295,2.0296,2.0296,2.0296,2.0296,2.0315,2.0316,2.0317,0,0,0,0,0,0,0,0,0,0,0,0,0,2.0235,2.0236,2.0273,2.0274,2.0274,2.0294,2.0294,2.0295,2.0296,2.0296,2.0296,2.0295,2.0315,2.0316,2.0317,0,0,0,0,0,0,0,0,0,0,0,0,0,2.0253,2.0236,2.0273,2.0277,2.0278,2.0294,2.0294,2.0295,2.0296,2.0296,2.0296,2.0295,2.0315,2.0316,2.0317,2.0331,0,0,2.032,2.0321,0,0,0,0,0,0,0,0,2.0252,2.0255,2.0276,2.0277,2.0278,2.0292,2.0288,2.0307,2.0296,2.0289,2.0296,2.0295,2.0308,2.031,2.0314,2.0332,2.0332,2.0321,2.0321,2.0322,2.0322,0,0,0,0,0,0,0,2.0251,2.0254,2.0282,2.0277,2.0277,2.0278,2.028,2.0292,2.03,2.029,2.029,2.0293,2.0308,2.0313,2.0315,2.0333,2.032,2.0321,2.0322,2.0323,2.0364,2.0364,0,0,0,0,0,0,2.0249,2.0253,2.0281,2.0282,2.0264,2.0279,2.0281,2.0288,2.03,2.0302,2.0293,2.0292,2.0311,2.0313,2.0315,2.0333,2.0322,2.0323,2.0323,2.0363,2.0364,2.0364,0,0,0,0,0,0,2.0248,2.0252,2.028,2.0268,2.0271,2.028,2.0287,2.0289,2.0293,2.0302,2.0304,2.0296,2.0311,2.0314,2.0327,2.0333,2.0323,2.0324,2.0363,2.0363,2.0364,2.0367,0,0,0,0,0,0,2.0247,2.0251,2.0256,2.0268,2.0272,2.0292,2.0288,2.0289,2.0295,2.0295,2.0306,2.0307,2.0311,2.0326,2.0328,2.0335,2.0325,2.0362,2.0363,2.0364,2.0367,2.0368,2.0369,0,0,0,0,0,2.0246,2.0256,2.0257,2.026,2.0279,2.0292,2.0294,2.0299,2.0296,2.0301,2.0307,2.0307,2.0332,2.0327,2.033,2.0337,2.0362,2.0363,2.0364,2.0366,2.0368,2.0369,0,0,0,0,0,0,2.0244,2.0257,2.0258,2.0273,2.0281,2.0292,2.0299,2.03,2.031,2.0309,2.0314,2.0316,2.033,2.0335,2.0328,2.0351,2.0347,2.0348,2.0348,2.0349,2.035,2.0349,2.0326,0,0,0,0,0,2.0246,2.0256,2.0267,2.0278,2.0283,2.029,2.0296,2.0299,2.0308,2.0312,2.0318,2.0327,2.0337,2.0343,2.0353,2.0368,2.037,2.0374,2.0375,2.0376,2.0377,2.0387,2.0388,2.0367,2.0367,2.0367,0,0,2.0249,2.0257,2.0263,2.0278,2.0285,2.0296,2.0293,2.0304,2.0312,2.0313,2.0327,2.0332,2.0342,2.0356,2.0363,2.0361,2.0384,2.0377,2.0378,2.0379,2.0388,2.039,2.0391,2.0368,2.0368,2.0368,0,0,2.026,2.0267,2.0278,2.0285,2.0296,2.0302,2.0304,2.0315,2.0319,2.0333,2.0335,2.0344,2.0361,2.0368,2.0374,2.0389,2.039,2.0392,2.0399,2.0407,2.0409,2.041,2.0416,2.0418,2.0394,2.0394,2.0394,0,2.0262,2.0278,2.0283,2.0294,2.0301,2.0304,2.0315,2.0322,2.0336,2.034,2.0338,2.036,2.0367,2.0383,2.0387,2.0392,2.0395,2.0391,2.0408,2.041,2.0411,2.0417,2.0419,2.0394,2.0394,2.0394,2.0394,0,2.028,2.0291,2.0299,2.0313,2.032,2.0332,2.0339,2.0346,2.0349,2.0354,2.0369,2.0377,2.0389,2.0393,2.0395,2.041,2.0409,2.0407,2.0403,2.0414,2.0419,2.0421,2.0394,2.0394,2.0394,2.0394,0,0,2.0289,2.0308,2.031,2.0317,2.033,2.0339,2.0351,2.0363,2.0369,2.0379,2.0389,2.0404,2.0403,2.041,2.0413,2.0421,2.0433,2.0418,2.0419,2.0421,2.0451,2.0452,2.0455,2.0434,2.0434,2.0434,2.045,0,2.0302,2.0323,2.0329,2.0347,2.0358,2.0361,2.0372,2.0381,2.0387,2.0397,2.0403,2.0414,2.0411,2.0416,2.0423,2.043,2.0439,2.0429,2.0443,2.0444,2.0441,2.0457,2.0458,2.0473,2.0453,2.0453,2.0453,0,2.0319,2.033,2.0349,2.0362,2.0367,2.0376,2.0389,2.0398,2.0409,2.0413,2.0421,2.0424,2.0437,2.0432,2.0449,2.0442,2.0448,2.0453,2.0453,2.0455,2.0449,2.046,2.0478,2.048,2.0457,2.0456,2.0456,0,2.0325,2.0344,2.0359,2.0364,2.038,2.0386,2.0393,2.0404,2.0411,2.0422,2.0427,2.0439,2.0445,2.0454,2.0461,2.0456,2.0478,2.0473,2.0481,2.0481,2.0485,2.0485,2.0505,2.0489,2.0489,2.0489,2.0489,0,2.0338,2.035,2.0362,2.037,2.0384,2.0391,2.0404,2.0411,2.0421,2.0431,2.0434,2.0444,2.0451,2.0462,2.0467,2.0481,2.0484,2.0487,2.0488,2.0487,2.0486,2.0491,2.049,2.049,2.049,2.049,2.049,0,2.0346,2.0355,2.0371,2.0385,2.0389,2.0398,2.041,2.0418,2.0425,2.0438,2.0441,2.0451,2.0464,2.0471,2.0487,2.049,2.0506,2.0507,2.0503,2.0503,2.0511,2.051,2.0535,2.0538,2.052,2.052,2.052,0,2.0354,2.0364,2.0379,2.0387,2.0394,2.0406,2.0414,2.0421,2.0429,2.0443,2.0451,2.0464,2.0475,2.0495,2.0503,2.0516,2.0517,2.0525,2.0519,2.0517,2.0517,2.0517,2.0518,2.0525,2.0526,2.0526,2.0526,0,2.0368,2.0372,2.0384,2.0397,2.0407,2.0418,2.0429,2.0435,2.0444,2.0453,2.0467,2.0475,2.0492,2.0505,2.0519,2.0525,2.0527,2.0528,2.053,2.0529,2.0526,2.0528,2.0506,2.0527,2.0527,2.0527,2.0527,2.0527,2.0377,2.0386,2.0398,2.0411,2.0421,2.0431,2.044,2.0448,2.046,2.0475,2.0479,2.0493,2.0505,2.0523,2.053,2.0541,2.054,2.0544,2.0545,2.0545,2.0546,2.0525,2.0544,2.0544,2.0544,2.0544,2.0544,0,2.0391,2.0399,2.0412,2.0427,2.0438,2.044,2.0452,2.0461,2.0473,2.0484,2.0496,2.0512,2.0525,2.0535,2.0548,2.0556,2.0557,2.0559,2.0558,2.056,2.0546,2.0543,2.0558,2.0558,2.0558,2.0558,2.0558,2.0558,2.0399,2.0415,2.0421,2.0441,2.0449,2.0464,2.0471,2.0481,2.049,2.0508,2.0519,2.0526,2.0537,2.0551,2.0563,2.0566,2.0571,2.0573,2.0576,2.0562,2.0561,2.0559,2.0556,2.0574,2.0574,2.0589,2.0589,2.0589]}]]